Miscellaneous Local Product
Issued by NWS North Platte, NE

Home | Current Version | Previous Version | Text Only | Print | Product List | Glossary On
Versions: 1 2 3 4 5 6 7 8 9 10 11 12 13 14 15 16 17 18 19 20 21 22 23 24 25 26 27 28 29 30 31 32 33 34 35 36 37 38 39 40 41 42 43 44 45 46 47 48 49 50
000
AXUS43 KLBF 270310
MISLBF


WESTERN AND NORTH CENTRAL NEBRASKA HOURLY WEATHER ROUNDUP
NATIONAL WEATHER SERVICE NORTH PLATTE NE
1000 PM CDT THU MAR 26 2015

***STATIONS NOT REPORTING VARIABLES SUCH AS SKY/WEATHER OR
PRESSURE ARE PROVIDED BY THE NEBRASKA DEPARTMENT OF
ROADS...RAWS...AND APRS NETWORKS...AND ARE NOT UNDER
NATIONAL WEATHER SERVICE QUALITY CONTROL***

...OBSERVATIONS IN AND NEAR THE EASTERN PANHANDLE OF NEBRASKA...

CITY           SKY/WX    TMP DP  RH WIND       PRES   REMARKS
PINE RIDGE     CLOUDY    40  27  59 E6        30.16R
CHADRON        CLOUDY    41  30  65 CALM      30.14S
ALLIANCE       CLOUDY    40  28  62 NE8       30.13S WCI  34
SIDNEY         CLOUDY    45  33  63 NE7       30.15R
WHITECLAY        N/A     38  25  60 E9          N/A  WCI  31
CRESCENT LAKE    N/A     39  26  61 E8          N/A  WCI  33
BIG SPRINGS      N/A     47  33  59 NE3         N/A
$$

...OBSERVATIONS IN NORTH CENTRAL NEBRASKA...

CITY           SKY/WX    TMP DP  RH WIND       PRES   REMARKS
VALENTINE      CLOUDY    33  27  78 NE10      30.21R WCI  25
THEDFORD       CLOUDY    35  30  83 NE5       30.20R WCI  30
AINSWORTH      CLOUDY    33  28  82 NE10      30.22R WCI  25
O`NEILL        CLOUDY    33  32  96 NW5       30.23R WCI  28
ORD            CLOUDY    34  28  79 NE10      30.21R WCI  26
BROKEN BOW     CLOUDY    33  27  78 N7        30.19R WCI  27
BROWNLEE         N/A     30  28  93 CALM        N/A
SPRINGVIEW       N/A     33  28  81 CALM        N/A
BREWSTER         N/A     32  29  88 CALM        N/A
ROSE             N/A     34  32  92 N9          N/A  WCI  27
NEWPORT          N/A     34  32  93 CALM        N/A
SARGENT          N/A     32  27  82 CALM        N/A
COMSTOCK         N/A     37  30  78 NE12        N/A  WCI  29
EWING            N/A     31  30  94 CALM        N/A
$$

...OBSERVATIONS IN SOUTHWEST NEBRASKA AND FAR NORTHEAST COLORADO...

CITY           SKY/WX    TMP DP  RH WIND       PRES   REMARKS
WRAY           MOCLDY    48  32  53 N6        30.15R
HOLYOKE        FAIR      46  32  57 N6        30.14S
IMPERIAL         N/A     43  28  55 NE8       30.15R
OGALLALA       CLOUDY    43  29  59 E8        30.15R
NORTH PLATTE   CLOUDY    37  28  70 NE10      30.19R WCI  30
MCCOOK         PTCLDY    44  29  55 NE20G28   30.15R
LEXINGTON      CLOUDY    36  30  78 NE12      30.20R WCI  28
PAXTON           N/A     45  32  59 NE13        N/A
SUTHERLAND       N/A     35  26  67 NE10        N/A  WCI  28
BRADY            N/A     36  28  72 NW3         N/A
GOTHENBURG       N/A     38  28  66 NE7         N/A  WCI  33
CALLAWAY         N/A     35  29  80 NE12        N/A  WCI  27
$$

...NORTH PLATTE AREA...

CITY           SKY/WX    TMP DP  RH WIND       PRES   REMARKS
AIRPORT        CLOUDY    37  28  70 NE10      30.19R WCI  30
$$

...SOME WEATHER OBSERVATIONS FROM AROUND THE REGION...

CITY           SKY/WX    TMP DP  RH WIND       PRES   REMARKS
DENVER         CLOUDY    52  31  44 NE7       30.16R
LARAMIE        CLOUDY    45  26  47 VRB7      30.20R
CHEYENNE       CLOUDY    44  26  49 S5        30.17R
SCOTTSBLUFF    CLOUDY    45  34  65 SE5       30.15R
RAPID CITY     CLOUDY    35  27  72 SE10      30.16R WCI  27
PIERRE         CLOUDY    31  28  89 CALM      30.23R
WINNER         MOCLDY    34  29  82 W3        30.24R
SIOUX FALLS    CLEAR     25  17  72 N7        30.23R WCI  17
OMAHA          CLOUDY    34  32  92 N7        30.19R WCI  28
GRAND ISLAND   CLOUDY    34  29  82 N15       30.22R WCI  24
KANSAS CITY    CLOUDY    43  31  62 N13       30.11R
WICHITA        MOCLDY    48  31  51 SW5       30.03R
HAYS           PTCLDY    48  27  43 N18       30.09R
LIBERAL        PTCLDY    45  27  49 N7        30.14R
GOODLAND       CLOUDY    48  31  51 W7        30.15R
$$



USA.gov is the U.S. government's official web portal to all federal, state and local government web resources and services.